Change the Weather History Date:

Thursday, September 6, 2012

  Actual Average Record
Temperature  
Mean Temperature 81 °F 78 °F  
Max Temperature 90 °F 89 °F 95 °F (2010)
Min Temperature 72 °F 67 °F 53 °F (2011)
Degree Days  
Heating Degree Days 0 0  
Month to date heating degree days 0 0  
Since 1 July heating degree days 0 0  
Cooling Degree Days 16 13  
Month to date cooling degree days 88 82  
Year to date cooling degree days 1838 1716  
Growing Degree Days 30 (Base 50)    
Moisture  
Dew Point 72 °F    
Average Humidity 76    
Maximum Humidity 100    
Minimum Humidity 52    
Precipitation  
Precipitation 0.00 in 0.14 in 1.21 in (2000)
Month to date precipitation 3.18 0.83  
Year to date precipitation 45.92 38.78  
Sea Level Pressure  
Sea Level Pressure 29.95 in    
Wind  
Wind Speed 2 mph (South)    
Max Wind Speed 8 mph    
Max Gust Speed 15 mph    
Visibility 9 miles    
Events      
T = Trace of Precipitation, MM = Missing Value Source: NWS Daily Summary

Daily Weather History Graph

Daily Weather History Graph

Search for Another Location

Airport or City:

Trip Planner

Search our weather history database for the weather conditions in past years. The results will help you decide how hot, cold, wet, or windy it might be!

Date:

Astronomy

Sep. 06, 2012 Rise Set
Actual Time 6:22 AM CDT 7:01 PM CDT
Civil Twilight 5:58 AM CDT 7:25 PM CDT
Nautical Twilight 5:29 AM CDT 7:54 PM CDT
Astronomical Twilight 4:59 AM CDT 8:24 PM CDT
Moon 10:36 PM CDT (9/6) 11:57 AM CDT (9/6)
Length of Visible Light 13h 27m
Length of Day
12h 38m
Waning Gibbous, 67% of the Moon is Illuminated
Sep 6
Waning Gibbous
Sep 8
Last Quarter
Sep 15
New
Sep 22
First Quarter
Sep 29
Full

Hourly Weather History & Observations

Time (CDT) Temp. Heat Index Dew Point Humidity Pressure Visibility Wind Dir Wind Speed Gust Speed Precip Events Conditions
12:01 AM 73.4 °F - 71.6 °F 94% 29.95 in 10.0 mi Calm Calm - N/A   Partly Cloudy
12:53 AM 73.0 °F - 71.1 °F 93% 29.93 in 10.0 mi Calm Calm - N/A   Clear
1:07 AM 73.4 °F - 71.6 °F 94% 29.94 in 10.0 mi SSE 3.5 mph - N/A   Scattered Clouds
1:20 AM 73.4 °F - 71.6 °F 94% 29.94 in 10.0 mi SSE 3.5 mph - N/A   Mostly Cloudy
1:41 AM 73.4 °F - 71.6 °F 94% 29.94 in 8.0 mi Calm Calm - N/A   Overcast
1:53 AM 73.0 °F - 72.0 °F 96% 29.93 in 8.0 mi SSE 3.5 mph - N/A   Overcast
2:53 AM 73.0 °F - 71.1 °F 93% 29.93 in 8.0 mi East 3.5 mph - N/A   Mostly Cloudy
3:53 AM 73.0 °F - 72.0 °F 96% 29.93 in 9.0 mi SSE 4.6 mph - N/A   Overcast
4:53 AM 73.9 °F - 72.0 °F 93% 29.95 in 9.0 mi Calm Calm - N/A   Overcast
5:31 AM 71.6 °F - 71.6 °F 100% 29.95 in 7.0 mi SSE 3.5 mph - N/A   Scattered Clouds
5:40 AM 73.4 °F - 71.6 °F 94% 29.95 in 7.0 mi Calm Calm - N/A   Mostly Cloudy
5:53 AM 73.0 °F - 71.1 °F 93% 29.94 in 7.0 mi Calm Calm - N/A   Overcast
6:03 AM 73.4 °F - 71.6 °F 94% 29.96 in 6.0 mi Calm Calm - N/A   Overcast
6:53 AM 73.0 °F - 72.0 °F 96% 29.96 in 4.0 mi Calm Calm - N/A   Overcast
7:53 AM 73.9 °F - 72.0 °F 93% 29.98 in 9.0 mi Calm Calm - N/A   Overcast
8:09 AM 75.2 °F - 71.6 °F 89% 29.99 in 10.0 mi Calm Calm - N/A   Overcast
8:33 AM 75.2 °F - 73.4 °F 94% 30.00 in 10.0 mi Calm Calm - N/A   Overcast
8:53 AM 77.0 °F - 73.0 °F 88% 29.99 in 10.0 mi Calm Calm - N/A   Overcast
9:11 AM 78.8 °F - 73.4 °F 83% 30.00 in 10.0 mi SSE 5.8 mph - N/A   Overcast
9:53 AM 81.0 °F 85.8 °F 73.0 °F 77% 29.99 in 10.0 mi Variable 4.6 mph - N/A   Mostly Cloudy
10:43 AM 80.6 °F 84.6 °F 71.6 °F 74% 30.00 in 10.0 mi South 5.8 mph - N/A   Scattered Clouds
10:53 AM 82.9 °F 88.0 °F 72.0 °F 69% 29.99 in 10.0 mi South 3.5 mph - N/A   Partly Cloudy
11:53 AM 84.9 °F 90.7 °F 72.0 °F 65% 29.99 in 10.0 mi South 4.6 mph - N/A   Partly Cloudy
12:53 PM 86.0 °F 91.5 °F 71.1 °F 61% 29.97 in 10.0 mi Variable 4.6 mph - N/A   Scattered Clouds
1:53 PM 87.1 °F 93.6 °F 72.0 °F 61% 29.96 in 10.0 mi WNW 4.6 mph - N/A   Mostly Cloudy
2:53 PM 89.1 °F 96.0 °F 72.0 °F 57% 29.94 in 10.0 mi Calm Calm - N/A   Scattered Clouds
3:53 PM 89.1 °F 95.0 °F 71.1 °F 55% 29.92 in 10.0 mi SSW 6.9 mph - N/A   Clear
4:53 PM 89.1 °F 94.1 °F 70.0 °F 53% 29.91 in 10.0 mi Calm Calm - N/A   Partly Cloudy
5:53 PM 86.0 °F 92.2 °F 72.0 °F 63% 29.90 in 10.0 mi Variable 4.6 mph - N/A   Partly Cloudy
6:53 PM 82.0 °F 87.9 °F 73.9 °F 76% 29.90 in 10.0 mi Calm Calm - N/A   Overcast
7:53 PM 79.0 °F - 75.0 °F 88% 29.92 in 10.0 mi Calm Calm - N/A   Mostly Cloudy
8:53 PM 78.1 °F - 75.0 °F 90% 29.94 in 10.0 mi Calm Calm - N/A   Clear
9:53 PM 75.9 °F - 75.0 °F 97% 29.94 in 10.0 mi Calm Calm - N/A   Mostly Cloudy
10:53 PM 75.0 °F - 73.9 °F 96% 29.94 in 9.0 mi Calm Calm - N/A   Clear
11:53 PM 75.0 °F - 73.0 °F 94% 29.95 in 10.0 mi Calm Calm - N/A   Clear